SCP
-0 -0 -0 -0 0 -0 -0 -0 -0 -0 -0 -0 0 0 0 -0 -0 -0 -0 -0 -0 -0 0 0 0 -0 0 -0 -0 -0 -0 -0
-0 0 0 -0 0 -0 -0 -0 0 -0 -0 0 -0 0 0 0 0 0 0 0 0 0 0 0 0 0 -0 0 0 0 0 0
-0 -0 0 -0 -0 -0 -0 -0 0 -0 0 0 0 0 0 0 0 0 -0 0 0 0 0 0 0 0 0 0 -0 0 -0 -0
-0 -0 -0 0 -0 -0 -0 -0 0 0 0 0 -0 0 0 0 0 0 0 1 0 0 -0 -0 -0 0 0 0 0 0 0 -0
-0 -0 -0 0 -0 -0 0 0 -0 0 0 0 0 0 0 0 0 1 0 0 0 0 0 0 0 0 0 0 0 0 0 0
-0 0 0 0 0 -0 0 0 -0 0 0 0 0 -0 0 0 0 1 0 0 0 0 -0 0 0 0 0 0 0 0 0 -0
-0 -0 0 0 0 0 0 0 -0 0 0 0 0 0 0 0 0 1 1 0 0 0 0 0 0 0 0 0 0 0 0 0
-0 -0 -0 -0 0 -0 0 0 0 0 0 0 0 0 0 0 0 0 1 1 0 1 0 0 0 0 0 0 0 0 0 -0
0 -0 -0 -0 -0 -0 0 0 0 0 0 0 0 0 0 0 0 0 1 1 0 0 0 0 1 0 0 0 0 0 0 0
-0 0 0 -0 -0 0 0 0 0 0 0 0 0 0 0 0 0 0 1 1 1 1 0 0 0 0 0 0 0 0 0 -0
-0 -0 0 0 -0 -0 0 0 0 1 1 1 0 1 0 1 1 1 2 1 1 0 1 0 1 1 1 1 1 1 0 0
0 -0 -0 0 0 0 1 1 1 1 1 1 1 1 1 1 2 1 2 2 0 1 1 1 1 1 1 1 1 1 1 0
0 1 -0 -0 0 1 1 1 1 1 1 1 2 1 1 1 1 2 2 2 0 0 2 2 2 1 1 1 1 1 1 1
0 0 1 1 0 0 2 2 2 2 2 2 2 2 2 2 3 5 4 2 1 1 1 2 1 1 1 1 1 1 1 1
0 0 1 2 1 0 1 2 4 3 3 2 2 5 3 4 5 5 3 2 2 1 1 2 2 1 1 1 1 1 1 1
0 0 0 1 1 2 3 2 3 4 4 3 3 4 8 10 8 5 2 1 1 1 1 1 1 1 1 1 2 1 1 1
0 0 0 0 1 2 3 7 9 9 4 7 8 7 7 6 7 3 5 1 1 1 1 0 1 1 1 1 1 1 0 0
0 0 1 3 6 2 4 9 12 1 9 3 4 1 2 2 0 0 0 1 0 0 0 1 1 0 0 1 1 1 0 0
1 2 2 2 2 5 8 8 5 4 2 0 0 0 0 0 0 0 1 1 0 0 1 1 0 1 0 0 0 0 0 0
1 2 2 1 1 2 4 5 3 3 1 1 0 0 0 0 0 0 1 2 1 1 1 0 0 0 0 0 0 0 0 0
Wind_Speed_500mb
40 36 35 35 33 33 40 32 27 36 30 13 8 5 4 3 1 8 8 8 10 19 12 10 18 9 23 14 16 16 17 13
38 36 34 35 34 34 33 36 37 28 25 13 17 16 11 8 11 16 7 14 12 8 9 3 13 9 12 13 8 2 6 2
37 35 33 35 37 35 31 39 42 39 26 19 25 21 23 15 19 13 19 12 10 7 5 7 8 5 5 7 4 3 3 3
38 38 37 36 39 42 39 30 45 53 41 25 31 28 23 25 20 21 19 15 14 14 13 11 9 5 8 4 9 1 2 6
40 39 40 40 40 43 46 38 38 43 51 41 30 26 23 21 22 25 23 17 10 10 3 8 13 12 11 11 6 6 5 9
39 39 41 42 39 48 45 42 40 39 44 44 36 28 28 26 24 28 22 19 16 8 16 3 15 6 5 7 13 5 8 14
44 43 44 45 44 49 44 48 47 42 42 40 37 32 35 31 29 28 31 20 16 18 21 13 20 19 12 13 15 10 10 12
48 47 48 47 52 48 49 53 50 49 37 41 38 42 41 40 33 30 32 24 20 26 19 21 20 15 14 18 20 17 15 22
51 52 54 56 54 55 51 50 58 55 53 47 45 40 39 35 38 36 36 36 28 31 27 27 34 19 17 23 23 14 13 14
61 58 60 63 65 64 63 58 58 62 58 49 41 39 32 30 30 39 45 41 36 33 32 27 29 15 22 33 27 22 22 14
62 67 67 67 71 74 73 73 68 67 65 51 45 38 37 41 42 36 42 38 42 36 36 30 32 32 31 31 28 20 20 19
71 74 77 79 72 74 80 76 77 70 66 60 55 60 53 53 41 41 43 33 38 43 48 41 38 40 31 39 30 26 24 19
70 81 84 85 83 77 81 81 74 76 71 67 57 53 51 44 36 39 36 42 45 47 50 49 43 37 38 40 35 32 31 28
59 74 86 90 87 86 83 84 80 77 76 69 67 63 52 36 41 38 30 22 32 41 47 49 45 43 41 42 38 31 29 30
39 41 78 92 93 90 85 88 84 79 77 76 68 61 51 46 28 29 33 32 34 36 45 46 45 39 36 35 33 32 32 30
30 26 25 84 98 95 96 96 88 77 73 62 54 61 42 51 41 21 17 28 35 38 40 40 37 33 29 30 27 27 31 27
10 28 36 35 86 98 98 95 84 59 45 56 57 57 56 43 42 25 19 35 41 49 45 39 21 17 19 19 17 17 12 8
24 19 20 19 15 74 75 72 77 50 70 74 69 66 46 47 31 9 49 68 51 50 59 19 17 17 13 8 2 5 8 8
7 22 23 17 16 39 67 77 85 72 67 64 63 60 64 56 44 49 76 42 40 31 15 11 10 10 7 6 5 8 8 12
17 19 30 32 34 37 51 64 63 65 60 50 39 54 60 58 64 53 33 33 29 19 11 9 13 11 3 1 1 13 7 7
Wind_Direction_500mb
172 174 176 172 175 168 171 171 175 176 198 230 184 191 199 27 130 275 322 128 283 336 310 20 28 19 41 14 41 12 345 357
177 177 180 171 177 177 176 176 186 172 214 225 181 214 209 215 248 228 178 225 216 324 335 340 354 341 39 354 72 281 25 79
180 181 182 180 182 180 181 187 185 181 174 193 191 205 201 204 224 247 189 250 224 280 255 290 76 53 327 84 321 91 133 148
183 183 186 188 183 191 186 200 200 192 186 184 198 196 225 199 211 242 206 205 240 232 257 189 171 214 179 129 138 16 309 240
187 190 189 191 187 196 190 195 219 207 194 188 201 204 199 217 199 223 245 219 234 265 193 215 166 221 266 228 289 128 327 295
191 193 193 194 193 202 198 193 217 223 207 204 195 196 209 214 211 233 250 228 210 249 236 312 196 242 295 226 291 252 259 260
192 194 195 197 193 206 210 194 212 227 213 208 202 193 212 210 219 223 243 256 234 236 232 231 230 248 225 228 280 267 250 292
199 197 200 201 194 210 220 198 197 226 221 210 211 199 220 203 215 221 240 239 229 241 233 217 245 207 237 259 228 230 244 254
207 202 204 202 206 202 216 212 195 216 224 213 208 219 222 225 211 220 227 234 242 227 242 235 244 247 227 241 258 247 261 252
200 207 207 208 207 209 210 219 207 210 222 220 216 212 227 243 238 225 228 231 233 232 251 223 246 233 232 250 267 242 245 233
199 203 209 212 213 213 215 218 216 212 219 218 207 215 219 230 240 236 233 245 241 227 242 241 223 225 241 256 252 248 240 231
199 201 207 213 215 218 222 226 223 222 216 218 219 214 211 221 222 235 236 242 262 229 236 242 232 237 239 244 253 249 249 259
209 201 206 209 211 216 222 225 230 225 226 216 221 222 223 221 232 228 230 249 225 223 230 237 242 240 237 240 248 251 256 267
244 214 205 205 207 211 215 221 227 231 227 229 213 225 216 217 231 229 234 236 238 244 247 247 250 249 250 245 253 253 253 268
272 268 203 199 199 205 206 215 221 230 226 230 224 211 226 212 213 221 234 256 261 271 269 251 251 255 257 258 260 256 258 278
296 315 244 200 200 203 202 209 215 222 225 222 231 215 213 211 216 228 290 292 277 265 265 259 252 251 247 247 250 272 283 269
286 289 298 281 207 203 204 201 197 196 215 210 211 211 208 196 206 221 281 293 269 263 268 239 235 239 239 254 274 282 274 288
24 339 320 339 242 206 200 174 176 219 226 219 209 207 204 200 184 310 307 279 273 267 246 210 213 236 246 248 111 358 333 330
30 60 61 61 99 159 182 182 185 197 195 209 217 207 190 196 224 242 284 263 268 268 268 217 224 195 166 131 25 4 249 268
128 100 88 65 76 111 151 172 181 181 203 201 204 202 211 221 244 277 260 254 242 227 224 163 103 88 78 300 289 255 269 300
Wind_Speed_850mb
40 36 35 35 33 33 40 32 27 36 30 13 8 5 4 3 1 8 8 8 10 19 12 10 18 9 23 14 16 16 17 13
38 36 34 35 34 34 33 36 37 28 25 13 17 16 11 8 11 16 7 14 12 8 9 3 13 9 12 13 8 2 6 2
37 35 33 35 37 35 31 39 42 39 26 19 25 21 23 15 19 13 19 12 10 7 5 7 8 5 5 7 4 3 3 3
38 38 37 36 39 42 39 30 45 53 41 25 31 28 23 25 20 21 19 15 14 14 13 11 9 5 8 4 9 1 2 6
40 39 40 40 40 43 46 38 38 43 51 41 30 26 23 21 22 25 23 17 10 10 3 8 13 12 11 11 6 6 5 9
39 39 41 42 39 48 45 42 40 39 44 44 36 28 28 26 24 28 22 19 16 8 16 3 15 6 5 7 13 5 8 14
44 43 44 45 44 49 44 48 47 42 42 40 37 32 35 31 29 28 31 20 16 18 21 13 20 19 12 13 15 10 10 12
48 47 48 47 52 48 49 53 50 49 37 41 38 42 41 40 33 30 32 24 20 26 19 21 20 15 14 18 20 17 15 22
51 52 54 56 54 55 51 50 58 55 53 47 45 40 39 35 38 36 36 36 28 31 27 27 34 19 17 23 23 14 13 14
61 58 60 63 65 64 63 58 58 62 58 49 41 39 32 30 30 39 45 41 36 33 32 27 29 15 22 33 27 22 22 14
62 67 67 67 71 74 73 73 68 67 65 51 45 38 37 41 42 36 42 38 42 36 36 30 32 32 31 31 28 20 20 19
71 74 77 79 72 74 80 76 77 70 66 60 55 60 53 53 41 41 43 33 38 43 48 41 38 40 31 39 30 26 24 19
70 81 84 85 83 77 81 81 74 76 71 67 57 53 51 44 36 39 36 42 45 47 50 49 43 37 38 40 35 32 31 28
59 74 86 90 87 86 83 84 80 77 76 69 67 63 52 36 41 38 30 22 32 41 47 49 45 43 41 42 38 31 29 30
39 41 78 92 93 90 85 88 84 79 77 76 68 61 51 46 28 29 33 32 34 36 45 46 45 39 36 35 33 32 32 30
30 26 25 84 98 95 96 96 88 77 73 62 54 61 42 51 41 21 17 28 35 38 40 40 37 33 29 30 27 27 31 27
10 28 36 35 86 98 98 95 84 59 45 56 57 57 56 43 42 25 19 35 41 49 45 39 21 17 19 19 17 17 12 8
24 19 20 19 15 74 75 72 77 50 70 74 69 66 46 47 31 9 49 68 51 50 59 19 17 17 13 8 2 5 8 8
7 22 23 17 16 39 67 77 85 72 67 64 63 60 64 56 44 49 76 42 40 31 15 11 10 10 7 6 5 8 8 12
17 19 30 32 34 37 51 64 63 65 60 50 39 54 60 58 64 53 33 33 29 19 11 9 13 11 3 1 1 13 7 7
Wind_Direction_850mb
172 174 176 172 175 168 171 171 175 176 198 230 184 191 199 27 130 275 322 128 283 336 310 20 28 19 41 14 41 12 345 357
177 177 180 171 177 177 176 176 186 172 214 225 181 214 209 215 248 228 178 225 216 324 335 340 354 341 39 354 72 281 25 79
180 181 182 180 182 180 181 187 185 181 174 193 191 205 201 204 224 247 189 250 224 280 255 290 76 53 327 84 321 91 133 148
183 183 186 188 183 191 186 200 200 192 186 184 198 196 225 199 211 242 206 205 240 232 257 189 171 214 179 129 138 16 309 240
187 190 189 191 187 196 190 195 219 207 194 188 201 204 199 217 199 223 245 219 234 265 193 215 166 221 266 228 289 128 327 295
191 193 193 194 193 202 198 193 217 223 207 204 195 196 209 214 211 233 250 228 210 249 236 312 196 242 295 226 291 252 259 260
192 194 195 197 193 206 210 194 212 227 213 208 202 193 212 210 219 223 243 256 234 236 232 231 230 248 225 228 280 267 250 292
199 197 200 201 194 210 220 198 197 226 221 210 211 199 220 203 215 221 240 239 229 241 233 217 245 207 237 259 228 230 244 254
207 202 204 202 206 202 216 212 195 216 224 213 208 219 222 225 211 220 227 234 242 227 242 235 244 247 227 241 258 247 261 252
200 207 207 208 207 209 210 219 207 210 222 220 216 212 227 243 238 225 228 231 233 232 251 223 246 233 232 250 267 242 245 233
199 203 209 212 213 213 215 218 216 212 219 218 207 215 219 230 240 236 233 245 241 227 242 241 223 225 241 256 252 248 240 231
199 201 207 213 215 218 222 226 223 222 216 218 219 214 211 221 222 235 236 242 262 229 236 242 232 237 239 244 253 249 249 259
209 201 206 209 211 216 222 225 230 225 226 216 221 222 223 221 232 228 230 249 225 223 230 237 242 240 237 240 248 251 256 267
244 214 205 205 207 211 215 221 227 231 227 229 213 225 216 217 231 229 234 236 238 244 247 247 250 249 250 245 253 253 253 268
272 268 203 199 199 205 206 215 221 230 226 230 224 211 226 212 213 221 234 256 261 271 269 251 251 255 257 258 260 256 258 278
296 315 244 200 200 203 202 209 215 222 225 222 231 215 213 211 216 228 290 292 277 265 265 259 252 251 247 247 250 272 283 269
286 289 298 281 207 203 204 201 197 196 215 210 211 211 208 196 206 221 281 293 269 263 268 239 235 239 239 254 274 282 274 288
24 339 320 339 242 206 200 174 176 219 226 219 209 207 204 200 184 310 307 279 273 267 246 210 213 236 246 248 111 358 333 330
30 60 61 61 99 159 182 182 185 197 195 209 217 207 190 196 224 242 284 263 268 268 268 217 224 195 166 131 25 4 249 268
128 100 88 65 76 111 151 172 181 181 203 201 204 202 211 221 244 277 260 254 242 227 224 163 103 88 78 300 289 255 269 300